Regional Weather Roundup
Issued by NWS Wilmington, NC

Home | Current Version | Previous Version | Text Only | Print | Product List | Glossary On
Versions: 1 2 3 4 5 6 7 8 9 10 11 12 13 14 15 16 17 18 19 20 21 22 23 24 25 26 27 28
000
ASUS42 KILM 250613
RWRILM
RWRILM
REGIONAL HOURLY WEATHER ROUNDUP
NATIONAL WEATHER SERVICE WILMINGTON NC
100 AM EST SAT NOV 25 2017

NOTE: "FAIR" INDICATES FEW OR NO CLOUDS BELOW 12,000 FEET WITH NO
SIGNIFICANT WEATHER AND/OR OBSTRUCTIONS TO VISIBILITY.

...............WFO WILMINGTON COUNTY WARNING AREA...............

......COASTAL NC AND SC COUNTIES......

CITY           SKY/WX    TMP DP  RH WIND       PRES   REMARKS
WILMINGTON     MOCLDY    46  40  79 NW6       29.93R
N MYRTLE BEACH CLOUDY    47  35  63 N5        29.94S
MYRTLE BEACH   CLEAR     47  35  63 N5        29.96S

......INLAND NC AND SC COUNTIES.......

CITY           SKY/WX    TMP DP  RH WIND       PRES   REMARKS
LUMBERTON      CLOUDY    30  30 100 CALM      29.96S
ELIZABETHTOWN  NOT AVBL
WHITEVILLE     CLEAR     43  35  73 CALM      29.94F
FLORENCE       CLEAR     33  31  92 CALM      29.97F
DARLINGTON     CLEAR     30  29  96 CALM      29.97F
KINGSTREE      FAIR      32  32 100 CALM      29.98R
HARTSVILLE     FAIR      34  32  93 CALM      29.96F
BENNETTSVILLE  FAIR      32  32 100 CALM      29.97F
CONWAY         FAIR      37  37 100 CALM      29.96S
GEORGETOWN     FAIR      39  37  93 W3        29.97R
MARION         FAIR      34  34 100 CALM      29.97S

....................REST OF NORTH CAROLINA......................

.........EASTERN NC.........

CITY           SKY/WX    TMP DP  RH WIND       PRES   REMARKS
CAPE HATTERAS  CLEAR     56  55  97 NE7       29.87F
JACKSONVILLE   MOCLDY    44  40  85 NW3       29.93F
MOREHEAD CITY  PTCLDY    49  47  93 N5        29.90S
KENANSVILLE    PTCLDY    39  36  87 CALM      29.94F
NEW BERN       PTCLDY    43  42  97 N3        29.93S
ELIZABETH CITY CLEAR     43  43 100 N7        29.93F

.........CENTRAL NC.........

CITY           SKY/WX    TMP DP  RH WIND       PRES   REMARKS
RALEIGH DURHAM PTCLDY    31  27  85 CALM      29.96F
ROCKY MOUNT    CLEAR     32  32 100 CALM      29.95F
ROANOKE RAPIDS NOT AVBL
FAYETTEVILLE   CLEAR     35  31  85 CALM      29.95S
HOFFMAN        CLEAR     29  28  93 CALM      29.96S

.........WESTERN NC.........

CITY           SKY/WX    TMP DP  RH WIND       PRES   REMARKS
CHARLOTTE      PTCLDY    38  36  92 CALM      29.96S
GREENSBORO     CLEAR     34  31  88 SW5       29.92F WCI  30
HICKORY        NOT AVBL
BOONE          NOT AVBL
ASHEVILLE      NOT AVBL

.....................REST OF SOUTH CAROLINA.....................

.........EASTERN SC.........

CITY           SKY/WX    TMP DP  RH WIND       PRES   REMARKS
CHARLESTON     MOCLDY    46  42  86 NW6       29.97S
BEAUFORT MCAS  CLEAR     41  40  96 CALM      29.98F
HILTON HEAD    CLEAR     45  43  93 CALM      29.99S

.........CENTRAL SC.........

CITY           SKY/WX    TMP DP  RH WIND       PRES   REMARKS
COLUMBIA       CLEAR     35  34  96 W3        29.97S
ORANGEBURG     CLEAR     38  36  92 CALM      29.98S
SUMTER SHAW    CLEAR     37  32  83 CALM      29.95S

.........WESTERN SC.........

CITY           SKY/WX    TMP DP  RH WIND       PRES   REMARKS
GREENVILLE     NOT AVBL
ROCK HILL      CLEAR     34  32  92 CALM      29.96S
ANDERSON       CLEAR     38  35  89 CALM      29.97S
CLEMSON        NOT AVBL
GREENWOOD      CLEAR     35  34  96 CALM      29.98F


...................COASTAL AND OFFSHORE REPORTS..................

................LOCAL PIERS AND NC RESERVE................


STATION/POSITION TIME  SKY/WX   TEMP    WIND        PRES    VSBY
                                AIR SEA DIR/SP/G
                 (UTC)          (F)     (DEG/KT/KT) (MB)    (MI)
JOHNY MRCER PIER 0530            48 61  340/  7/  9 1013.1R
NC RESRV MASNBRO 0445            49        CALM     1013.0
OCEAN CREST PIER NOT AVBL
SPRINGMAID  PIER 0530                               1013.3S


................COASTAL AND OFFSHORE BUOYS................


STATION/POSITION TIME  SKY/WX   TEMP    WIND        PRES    VSBY
                                AIR SEA DIR/SP/G
                 (UTC)          (F)     (DEG/KT/KT) (MB)    (MI)
DIMNDSHOAL 41025 0600            69 70   30/ 12/ 16 1011.2
CAPE LOOKOUT     0600                   360/ 10/ 11 1012.2F
ONSLOW BAY 41036 NOT AVBL
ONSLOW BAY 41064 0508            59 66   40/ 14/ 17 1012.1F
ONSLOW BAY 41159 0600               66                N/A
WVE H/P(F/S)=  6/ 8 SWL H/P/D(F/S/D)=  2/120/11

MASNBO INL 41110 0559               63                N/A
WVE H/P(F/S)=  4/ 9 SWL H/P/D(F/S/D)=  2/130/11

WILM HARBR 41108 0600               61                N/A
WVE H/P(F/S)=  4/10 SWL H/P/D(F/S/D)=  2/140/11

27SE WRITB 41037 NOT AVBL
FRYING PAN 41013 0600            63 72   10/ 14/ 16 1011.8
SUNST NRSH 41024 0508            50 60   10/  8/ 12 1013.2F
CAPRS NRSH 41029 0508            51 60  360/ 10/ 14 1014.0S
EDISTO     41004 0600            62 74  360/ 12/ 16 1013.3


..........OFFSHORE BUOYS BEYOND 100 NM OFFSHORE...........
.....IN A TRIANGLE---HAT TO BERMUDA TO BAHAMAS TO HAT.....


STATION/POSITION TIME  SKY/WX   TEMP    WIND        PRES    VSBY
                                AIR SEA DIR/SP/G
                 (UTC)          (F)     (DEG/KT/KT) (MB)    (MI)
150E HAT   41001 NOT AVBL
W BERMUDA  41048 0600            76 75  220/ 12/ 16 1010.7
ATLANTIC S 41049 0550            77 79  150/  8/  8 1017.3F
WVE H/P(F/S)=  4/ 9 SWL H/P/D(F/S/D)=  3/ 40/ 9

E BAHAMAS  41046 0600            80 81  150/ 12/ 14 1015.6
NE BAHAMAS 41047 0600            74     230/ 16/ 19 1014.4
120E CANVRL41010 NOT AVBL

END




USA.gov is the U.S. government's official web portal to all federal, state and local government web resources and services.